Flag for Germany Weather past 2 weeks in Freiberg, Saxony, Germany

Now
63 °F

Partly sunny.


Feels Like: 63 °F
Forecast: 46 / 56 °F
Wind: 14 mph from West

Location: Dresden-Klotzsche

Current Time: Sep 5, 2015 at 3:12:49 PM

Latest Report: Sep 5, 2015 at 2:50 PM


Visibility: N/A

Pressure: 29.89 "Hg

Humidity: 59%

Dew point: 48 °F

Location of FreibergLocation

Historic Weather in Freiberg — Graph

°F

Freiberg temperature yesterday

Maximum temperature yesterday: 64 °F (at 12:50 PM)
Minimum temperature yesterday: 50 °F (at 5:50 AM)
Average temperature yesterday: 57 °F

Past Weeks' High & Low Weather Summary

 TemperatureHumidityPressure
High91 °F (Aug 31, 1:50 PM)100% (Aug 28, 10:20 AM)30.30 "Hg (Aug 28, 10:20 AM)
Low48 °F (Sep 5, 4:50 AM)27% (Aug 22, 2:20 PM)29.71 "Hg (Sep 1, 4:20 PM)
Average66 °F68%29.99 "Hg
* Reported Aug 21 1:20 PM — Sep 5 1:50 PM, Freiberg, Weather by CustomWeather, © 2015

Note: Actual official high and low records may vary slightly from our data, if they occured in-between our weather recording intervals... More about our weather records

Advertising

Freiberg weather history for previous 24 hours

 ConditionsComfort  
Time TempWeatherWind HumidityBarometerVisibility
1:50 PM
Sat, Sep 5
61 °FScattered clouds.13 mph59%29.89 "HgN/A
1:20 PM61 °FBroken clouds.12 mph63%29.89 "HgN/A
12:20 PM59 °FPartly sunny.13 mph63%29.89 "HgN/A
11:50 AM59 °FPartly sunny.13 mph72%29.89 "HgN/A
11:20 AM59 °FScattered clouds.16 mph68%29.89 "HgN/A
10:50 AM57 °FPartly sunny.15 mph72%29.89 "HgN/A
10:20 AM57 °FPartly sunny.14 mph67%29.89 "HgN/A
9:50 AM55 °FBroken clouds.10 mph72%29.89 "HgN/A
9:20 AM55 °FPartly sunny.13 mph77%29.89 "HgN/A
8:50 AM54 °FLight rain. Partly sunny.12 mph77%29.89 "HgN/A
8:20 AM54 °FLight rain. Broken clouds.13 mph72%29.89 "HgN/A
7:50 AM54 °FScattered clouds.12 mph72%29.89 "HgN/A
7:20 AM52 °FClear.8 mph77%29.89 "Hg10 mi
6:50 AM50 °FClear.9 mph76%29.86 "Hg10 mi
6:20 AM48 °FClear.12 mph82%29.89 "Hg10 mi
5:20 AM48 °FClear.9 mph82%29.89 "Hg10 mi
4:50 AM48 °FClear.8 mph82%29.89 "Hg10 mi
4:20 AM50 °FClear.8 mph76%29.89 "Hg10 mi
3:50 AM50 °FClear.9 mph76%29.89 "Hg10 mi
3:20 AM50 °FPassing clouds.7 mph76%29.92 "HgN/A
2:50 AM50 °FClear.7 mph82%29.92 "Hg10 mi
2:20 AM50 °FClear.7 mph82%29.92 "Hg10 mi
1:50 AM52 °FClear.9 mph77%29.92 "Hg10 mi
1:20 AM50 °FClear.6 mph82%29.92 "Hg10 mi
12:50 AM52 °FClear.7 mph77%29.92 "Hg10 mi
12:20 AM52 °FClear.5 mph82%29.92 "Hg10 mi
11:20 PM
Fri, Sep 4
54 °FClear.7 mph77%29.92 "Hg10 mi
10:50 PM54 °FClear.7 mph77%29.92 "Hg10 mi
10:20 PM55 °FClear.7 mph77%29.95 "Hg10 mi
9:50 PM55 °FClear.5 mph82%29.95 "Hg10 mi
9:20 PM57 °FClear.6 mph77%29.95 "Hg10 mi
8:50 PM57 °FPassing clouds.3 mph77%29.95 "HgN/A
8:20 PM57 °FScattered clouds.5 mph72%29.95 "HgN/A
7:50 PM59 °FSunny.2 mph72%29.92 "Hg10 mi
7:20 PM61 °FPassing clouds.3 mph68%29.92 "HgN/A
6:50 PM63 °FPassing clouds.5 mph64%29.92 "HgN/A
6:20 PM63 °FScattered clouds.7 mph64%29.92 "HgN/A
5:50 PM63 °FPartly sunny.5 mph68%29.92 "HgN/A
5:20 PM64 °FPassing clouds.6 mph64%29.92 "HgN/A
4:50 PM64 °FPassing clouds.7 mph60%29.92 "HgN/A
4:20 PM63 °FScattered clouds.8 mph64%29.92 "HgN/A
3:50 PM61 °FScattered clouds.3 mph72%29.95 "HgN/A
3:20 PM63 °FScattered clouds.6 mph59%29.95 "HgN/A
Weather by CustomWeather, © 2015

See weather overviewHow to use our weather pages